RH
31 31 31 30 29 29 29 29 30 31 32 30 27 22 20 19 19 21 23 24 24 23 21 19 17 15 13 12 11 10 9 8 6 5 4 3 3 4 4 4 5 4
34 34 33 33 33 32 33 33 33 35 35 33 29 24 22 21 21 23 25 26 26 25 22 20 18 16 14 13 12 10 9 7 5 4 4 4 4 5 6 6 6 6
38 37 37 37 37 36 36 36 36 37 38 36 32 28 24 23 23 25 26 27 28 26 23 21 18 17 15 13 11 9 7 5 4 4 5 6 6 6 7 7 7 6
42 41 39 39 39 38 37 37 37 38 39 39 36 32 28 26 26 27 28 29 29 27 24 21 19 17 14 12 9 7 6 4 5 5 6 6 7 7 7 7 8 8
45 43 41 40 39 38 38 37 37 38 40 41 41 38 34 31 30 30 31 33 31 28 24 21 19 16 13 10 8 6 5 5 6 7 7 7 7 7 7 8 9 9
46 44 42 41 40 39 39 38 38 39 41 43 44 43 41 38 37 36 36 35 32 28 25 21 18 15 12 9 6 6 6 7 8 7 8 8 8 8 9 10 11 13
47 46 44 42 41 40 39 39 39 39 40 43 45 47 46 44 43 41 39 35 32 28 24 21 17 13 10 7 6 6 8 9 9 9 9 10 11 12 13 14 15 16
49 47 46 44 42 41 40 40 39 39 40 42 46 48 47 46 44 42 39 35 31 27 23 19 15 11 8 7 6 7 9 9 9 9 11 13 16 17 18 19 19 19
49 48 47 45 44 43 41 41 40 40 41 44 47 48 47 46 44 42 39 35 31 26 21 17 13 9 7 7 8 9 10 9 9 11 14 17 19 21 22 22 22 21
50 49 48 47 46 45 43 42 41 42 45 48 49 49 48 47 45 43 39 35 29 24 19 14 10 8 8 8 10 11 10 10 11 14 18 20 22 23 24 25 25 26
50 50 49 49 48 46 45 44 43 45 47 50 50 49 49 48 46 44 39 33 27 21 16 11 8 7 9 10 12 12 11 11 14 18 21 23 25 26 27 28 28 29
50 50 49 49 49 48 46 45 44 46 48 50 50 50 50 49 47 44 38 31 24 18 13 9 8 9 10 12 13 12 12 14 18 21 24 26 27 29 29 30 30 30
50 49 49 49 49 49 47 46 45 47 49 50 51 52 52 51 48 43 36 28 21 14 10 8 9 11 13 14 14 12 14 19 22 24 26 28 29 29 29 30 31 32
50 49 48 48 49 49 48 48 48 49 50 52 53 55 54 52 48 42 34 26 18 12 9 9 11 13 14 15 14 12 16 22 26 27 29 30 30 30 30 31 32 34
51 49 48 49 49 49 49 49 50 51 52 54 57 58 57 53 47 40 31 23 15 10 9 10 13 15 15 15 14 14 19 25 29 31 31 31 30 30 32 33 36 39
51 47 47 48 48 49 50 50 52 53 55 57 60 60 57 53 45 37 28 19 12 9 9 11 15 16 16 16 14 16 22 28 31 33 32 31 31 33 35 38 39 41
52 47 45 46 47 48 50 52 54 56 58 60 63 62 58 51 43 33 23 15 10 9 10 13 16 17 17 16 15 20 27 30 31 32 32 32 34 36 37 38 40 41
53 48 45 45 47 49 51 54 57 59 61 64 65 63 57 49 40 30 19 12 10 10 12 15 18 18 18 16 18 27 34 33 32 32 32 34 36 37 38 39 42 45
56 51 47 46 47 51 54 57 61 63 65 67 67 63 56 47 37 26 16 11 10 11 14 18 19 18 18 17 21 33 38 36 34 34 34 36 37 38 42 45 46 46
61 56 51 47 48 52 57 61 64 67 69 70 67 61 54 45 33 22 13 10 10 11 15 20 20 19 18 18 26 37 40 37 37 38 38 38 39 43 47 49 49 49
67 62 56 50 49 53 59 64 67 70 72 71 67 60 52 42 29 19 12 10 11 13 17 21 21 20 19 20 31 41 41 38 40 41 40 39 42 47 49 51 54 56
72 68 61 54 52 55 62 68 71 73 74 72 66 59 50 38 25 15 11 11 12 15 19 22 22 21 20 24 36 43 40 39 43 44 41 43 48 49 48 52 59 62
76 73 66 58 55 59 66 72 75 77 76 72 65 57 47 33 20 13 11 12 14 18 22 23 23 23 22 28 41 46 40 41 46 47 46 50 54 53 48 50 58 64
80 77 70 61 59 64 71 75 78 79 77 71 64 56 43 29 17 12 12 14 16 20 24 24 24 25 25 33 47 48 41 42 48 50 51 53 53 50 47 44 50 61
84 79 72 64 63 68 75 79 81 81 77 71 64 54 40 25 16 12 13 15 17 23 25 25 26 27 29 39 52 51 43 44 49 51 52 51 47 44 43 40 41 52
86 81 73 67 66 72 79 82 83 81 77 71 63 51 37 23 14 12 13 15 19 24 27 26 27 29 32 43 56 54 46 47 51 51 50 48 45 42 40 39 38 43
Wind_Speed
65 65 66 66 67 68 69 69 70 70 70 71 71 72 72 73 73 74 75 76 77 79 80 82 83 84 85 86 87 88 88 88 89 89 88 86 83 82 81 81 81 80
65 65 66 67 68 68 69 69 70 70 70 71 71 72 72 73 73 74 75 76 78 79 81 82 83 84 85 86 87 88 88 88 86 84 82 80 78 76 75 76 76 75
65 65 66 67 68 68 69 69 69 70 70 71 71 72 73 73 74 75 76 77 78 80 81 82 83 84 86 87 87 88 87 86 82 79 76 75 74 72 71 71 71 71
65 66 66 67 68 68 68 69 69 69 70 70 71 72 73 74 75 76 77 78 79 80 81 82 83 84 85 87 87 86 85 81 78 75 74 72 72 70 67 66 66 67
66 66 67 67 67 68 68 69 69 69 70 70 71 72 73 74 75 76 77 78 79 80 80 81 82 83 84 85 85 83 81 77 74 72 71 70 69 67 65 62 61 62
66 67 67 67 67 68 68 69 69 69 69 70 71 72 73 74 75 76 77 78 78 79 80 81 82 83 83 83 81 78 75 74 72 70 68 67 65 63 61 58 57 56
66 67 67 67 67 68 69 69 69 69 70 70 70 71 72 73 74 75 76 77 77 78 79 81 82 82 82 81 78 74 71 70 69 67 65 62 60 59 57 55 54 53
66 67 67 68 68 69 69 69 70 70 70 69 70 70 71 72 73 74 75 75 77 78 79 80 81 81 80 78 75 71 68 67 66 64 61 58 56 55 54 54 53 52
66 67 67 68 69 69 69 69 69 69 69 69 69 70 70 71 72 73 74 75 76 78 79 80 80 79 77 74 71 68 67 65 62 60 57 55 54 53 53 53 53 52
67 67 67 68 69 69 69 69 69 69 68 68 69 69 70 71 71 72 73 75 76 77 78 79 78 76 73 70 67 66 64 62 59 56 54 53 52 52 51 51 52 52
67 67 68 68 68 69 68 69 69 68 68 68 69 69 70 70 71 72 73 75 76 77 77 77 76 73 70 67 65 64 62 59 55 53 52 51 50 50 50 50 50 50
67 67 68 68 69 69 69 69 69 69 69 69 69 69 70 70 71 72 73 74 75 76 76 75 73 70 67 64 63 61 59 55 52 50 49 49 48 48 49 49 50 50
67 68 69 69 69 70 70 70 70 69 69 69 69 70 70 70 71 72 73 74 74 74 74 72 69 66 64 62 61 59 55 52 50 48 47 47 47 48 48 48 49 49
68 68 69 70 70 70 70 70 70 70 69 69 70 70 70 71 71 72 73 73 73 73 71 69 66 64 62 61 59 56 52 49 47 46 46 46 46 46 46 47 47 47
68 69 69 70 70 71 71 71 70 70 69 69 70 70 70 71 71 72 73 73 72 72 69 67 64 62 61 59 57 53 49 46 45 45 45 45 44 44 44 44 44 45
68 69 69 70 71 71 71 71 70 70 69 69 70 70 70 70 71 72 72 72 71 70 68 65 62 60 59 58 55 50 46 44 43 43 44 43 42 42 42 42 43 44
69 69 70 70 71 71 71 71 70 69 69 69 69 70 70 70 70 71 71 71 69 68 66 62 60 58 57 55 52 47 44 42 41 41 41 41 41 41 41 42 43 44
69 69 70 71 71 71 71 70 70 69 69 69 69 69 69 70 70 70 70 69 67 65 63 60 58 56 55 52 48 44 42 41 40 38 38 38 39 39 40 40 40 41
69 69 70 71 71 71 71 70 69 69 69 69 69 69 69 69 70 70 69 68 66 63 61 58 56 54 52 49 45 41 40 40 38 36 36 37 36 36 36 37 38 39
69 70 70 71 71 71 71 70 69 69 69 69 69 68 69 69 69 69 68 66 64 62 59 56 55 53 50 46 42 39 39 38 35 34 34 34 33 33 33 34 36 36
69 70 71 72 72 71 71 70 69 69 69 69 68 68 68 68 68 68 66 65 62 60 57 54 52 51 48 43 39 38 37 35 33 32 32 32 31 31 32 32 34 35
70 71 71 72 72 71 71 70 70 69 69 68 68 67 67 68 67 67 65 63 61 58 55 52 50 49 45 40 37 36 35 32 30 30 31 30 31 32 32 32 33 35
70 71 72 72 72 71 70 70 69 69 69 68 67 67 67 67 66 65 63 61 58 56 53 50 48 46 42 38 36 35 33 30 29 29 30 30 32 34 35 33 33 34
71 71 72 72 72 71 70 70 69 69 68 68 67 66 66 66 65 64 62 59 57 54 51 48 46 44 40 36 34 34 32 29 28 29 30 31 33 36 36 35 34 34
71 71 72 72 71 70 70 69 68 68 68 67 66 66 66 65 64 62 60 57 55 52 49 46 44 41 38 35 33 33 31 29 28 28 30 32 34 36 37 36 34 34
71 71 71 71 71 70 69 68 68 68 67 66 66 65 65 64 63 62 59 56 53 50 48 45 42 39 37 34 32 32 31 30 29 28 29 31 34 35 36 35 34 33
Wind_Direction
304 303 303 302 302 302 301 300 299 297 296 294 293 292 291 292 292 293 294 295 296 297 298 299 299 299 298 298 298 298 298 298 297 295 292 289 285 282 280 277 275 273
303 303 303 303 303 302 301 300 299 298 296 294 293 292 292 292 293 293 294 296 297 298 299 300 301 301 301 301 301 301 301 300 298 295 291 288 286 283 281 278 276 274
304 304 304 304 303 303 302 301 300 298 297 295 293 292 292 292 293 294 295 296 298 299 300 301 302 303 303 304 304 304 303 301 298 294 291 288 286 283 281 279 277 275
305 304 304 304 303 303 302 302 301 300 298 296 295 294 294 294 294 295 296 298 299 300 301 302 304 305 306 306 306 305 303 301 297 294 292 289 287 284 282 279 277 276
305 305 305 305 304 304 304 303 303 302 300 298 297 296 295 295 296 297 298 299 300 301 303 304 305 306 307 307 306 305 303 300 297 295 293 291 288 286 283 281 278 276
306 306 306 306 305 305 305 305 304 303 302 300 299 298 297 297 298 298 299 300 301 303 304 306 307 308 308 308 306 304 302 300 298 296 294 291 289 287 285 283 280 278
307 307 307 307 307 306 307 306 306 305 303 302 300 300 299 299 300 300 301 302 303 305 306 308 309 309 309 308 306 303 301 299 298 296 294 292 290 288 287 285 283 281
309 308 308 308 308 308 308 308 307 306 305 304 303 302 301 301 302 302 303 304 306 307 308 309 310 310 309 308 306 303 301 299 297 295 294 292 290 290 289 288 286 284
310 310 310 310 310 310 310 309 309 308 307 306 305 304 303 303 304 304 305 307 308 309 310 311 311 310 309 307 305 303 301 299 297 295 293 291 291 290 289 289 288 286
311 311 311 311 311 311 311 311 310 309 308 307 306 306 305 305 306 306 307 309 310 310 311 311 311 310 308 306 304 302 301 299 296 294 293 292 291 291 290 290 289 288
313 312 312 312 311 312 312 312 311 310 309 308 307 307 307 307 308 308 309 310 311 312 312 312 311 310 308 305 303 302 300 298 295 294 293 293 293 292 291 290 289 288
314 313 313 313 312 313 313 312 312 311 310 310 309 308 308 309 309 310 311 312 312 313 313 312 311 309 307 305 303 302 299 297 295 294 293 294 293 292 291 290 289 288
314 314 314 314 314 314 313 313 312 312 311 311 310 310 310 310 311 311 312 313 313 313 313 312 310 307 305 304 303 301 298 296 294 294 294 294 293 292 292 291 290 289
315 315 315 315 315 314 314 314 313 313 312 312 311 311 311 311 312 312 313 314 314 314 313 311 309 306 305 304 302 300 297 294 294 294 294 294 294 294 293 293 292 291
315 316 316 316 315 315 315 314 314 313 313 312 312 312 312 312 312 313 314 314 314 314 313 311 308 306 305 303 301 299 296 294 294 294 295 295 295 295 294 293 292 291
315 316 317 316 316 315 315 315 314 314 313 313 313 313 312 313 313 314 314 315 315 314 312 310 307 306 304 302 300 297 295 293 294 294 296 296 296 295 293 292 291 291
316 317 317 317 316 316 315 315 314 314 314 314 313 313 313 313 314 314 315 315 315 313 312 309 307 305 303 301 299 296 293 293 294 295 296 296 295 295 294 294 294 294
316 317 318 318 317 316 315 315 315 315 314 314 314 313 313 314 314 315 315 315 314 313 311 308 306 304 302 300 297 294 292 293 295 296 296 295 295 296 297 297 297 297
316 318 318 318 317 316 316 315 315 315 315 314 314 314 314 314 315 316 316 315 314 312 310 307 306 304 302 299 295 291 291 293 296 296 295 295 296 298 299 299 299 299
316 317 318 318 317 316 316 316 315 315 315 315 314 314 314 315 315 316 316 315 314 312 309 307 305 303 301 297 292 289 290 293 295 295 294 296 299 300 301 302 303 303
316 317 317 318 317 316 316 316 315 315 315 315 314 314 315 315 316 316 315 314 313 311 309 306 304 302 300 295 289 287 289 292 292 292 293 296 299 300 302 306 307 307
315 316 317 317 317 316 316 316 316 315 315 315 314 314 315 316 316 316 315 314 312 310 308 306 303 301 298 292 287 286 288 289 289 288 292 296 298 299 302 306 308 309
315 315 316 317 317 316 316 316 316 315 315 315 314 315 315 316 316 316 315 313 312 309 307 305 302 300 296 289 284 284 286 286 285 286 291 295 297 298 300 303 306 308
314 315 315 316 316 316 316 316 315 315 315 315 315 315 316 316 316 315 314 313 311 309 307 305 302 299 294 286 281 282 283 282 281 285 290 294 295 296 299 301 303 305
314 314 315 316 316 315 315 315 315 315 315 315 315 316 316 316 316 315 314 312 310 309 307 304 301 298 291 283 279 280 280 279 279 284 290 294 295 296 298 301 302 302
313 314 315 315 315 315 315 315 315 315 315 315 315 316 316 316 316 315 314 312 310 308 306 304 301 296 288 280 277 277 277 276 279 284 290 293 295 296 298 301 302 302